Погода в Чуе

Узбекистан     40°27′06″N   66°02′46″E
темп.,
°C
ветер,
м/с
пор.,
м/с
влажн.,
%
обл.,
%
осадки,
мм/ч
давл.,
гПа
погр.,
м
1 марта, пн
пн123:00+3ююв2243100 0.0 102122
02:00+3ююв233540 0.0 102023
05:00+3ююв334120 0.0 102024
08:00+4ююв34410 0.0 102035
11:00+12ююз510250 0.0 10191116
14:00+14ююз1013240 0.0 10171458
17:00+13юз711250 0.0 10171386
20:00+7юз22410 0.0 101922
2 марта, вт
вт223:00+6юз223817 0.0 102122
02:00+5зюз2242100 0.0 102222
05:00+3з114896 0.0 102222
08:00+4ссз1150100 0.0 102322
11:00+10с1133100 0.0 1023308
14:00+12ссз323297 0.0 1021815
17:00+10с433773 0.0 1021637
20:00+5ссв22510 0.0 102454
3 марта, ср
ср323:00+3ссв125713 0.0 102524
02:00+2всв226084 0.0 102535
05:00+3всв125888 0.0 102548
08:00+3в226574 0.0 102543
11:00+8з124047 0.0 1023784
14:00+11зсз453811 0.0 10211571
17:00+10сз344228 0.0 10201165
20:00+6в12640 0.0 102025
4 марта, чт
чт423:00+5ю12600 0.0 102022
02:00+4ю22530 0.0 101922
05:00+3ююв22550 0.0 101822
08:00+5ююв235333 0.0 101825
11:00+11ююз354347 0.0 1017709
14:00+11ююз475468 0.1 10171023
17:00+13зюз8124635 0.3 10171976
20:00+9зсз6105188 0.8 1021865
5 марта, пт
пт523:00+5ссз346866 0.8 1024173
02:00+1сз569799 2.9 1027299
05:00+1ссз129398 5.3 1030215
08:000в34899 0.0 1031194
11:00+4в34665 0.0 1029573
14:00+7в23490 0.0 1025998
17:00+7св435527 0.0 1023594
20:00+3всв2380100 0.0 1022115